sat.trackr.live / text

‹ back to catalog

STARLINK-32861

NORAD 62870 · 2025-022S

PAYLOAD ACTIVE UNKNOWN

§ Identity

Operator
Country
US
Launch date
2025-02-01
Launch site
AFWTR
Launch vehicle
Mass (kg)
RCS (m²)

Purposes: comms

External: N2YO · Heavens-Above · Gunter

§ Orbital elements

Epoch: 2026-05-25T03:41:56.387904Z

Period
93.85 min
Inclination
53.1590°
Eccentricity
0.0001301
Mean motion
15.34412997 rev/d
Perigee alt
461.8 km
Apogee alt
463.6 km
Semi-major
6,840.8 km
B*
5.8596e-4
RAAN
133.2802°
Arg perigee
99.0950°
Mean anomaly
261.0200°
Rev number
7,362

§ Raw data

STARLINK-328611 62870U 25022S   26145.15412486  .00019481  00000+0  58596-3 0  99912 62870  53.1590 133.2802 0001301  99.0950 261.0200 15.34412997 73628

JSON: /api/v1/satellites/62870 · /tle

For live sub-satellite position, see the globe view (requires WebGL).

§ Visibility from observer

Set your observer location to see the next 7 days of passes ≥ 10°. The values pass through the URL so the page stays shareable.

No JS? Fill the form by hand. The geolocation button needs JavaScript.